Tacoma, WA
on Saturday, December 29, 2012

Saturday
Previous Day Next Day
Daily Summary
 ActualAverage (KSEA)Record (KSEA)
Temperature
Mean Temperature °F 40°F  
Max Temperature 41°F 45°F 54°F (1949)
Min Temperature 33°F 36°F 8°F (1968)
Degree Days
Heating Degree Days 28 24  
Month to date heating degree days 709  
Since 1 July heating degree days 1892  
Cooling Degree Days 0 0  
Month to date cooling degree days 0  
Year to date cooling degree days 189  
Moisture
Dew Point 37°F   
Average Humidity 97    
Maximum Humidity 100    
Minimum Humidity 81    
Precipitation
Precipitation 0.09 in 0.16 in 1.92 in (1996)
Month to date precipitation 5.03  
Year to date precipitation 37.17  
Snow
Snow 0.00 in in 2.10 in (1971)
Month to date snowfall  
Since 1 July snowfall  
Snow Depth in   
Wind
Wind Speed 2 mph   
Max Wind Speed 5 mph   
Max Gust Speed mph   
Visibility 7 miles   
Events Fog , Rain   

Key: T is trace of precipitation, MM is missing value
Source: NWS Daily Summary
Time(PST)TemperatureDew PointHumidity Pressure Visibility Wind DirectionWind SpeedGust SpeedPrecipitationEvents Conditions
12:48 AM 33.8°F 33.8°F 100% 30.16 in 2.5 miles SSE 2.3 mph - N/A   Mostly Cloudy
12:53 AM 35.6°F 33.8°F 93% 30.16 in 1.8 miles SSE 2.3 mph - N/A   Mostly Cloudy
12:58 AM 35.6°F 33.8°F 93% 30.18 in 1.2 miles SSE 2.3 mph - N/A   Scattered Clouds
1:03 AM 33.8°F 33.8°F 100% 30.16 in 1.0 miles SE 2.3 mph - N/A   Scattered Clouds
1:08 AM 33.8°F 33.8°F 100% 30.16 in 0.8 miles ESE 1.2 mph - N/A   Partly Cloudy
1:13 AM 33.8°F 33.8°F 100% 30.16 in 0.8 miles ESE 2.3 mph - N/A   Clear
1:18 AM 35.6°F 35.6°F 100% 30.16 in 0.5 miles East 2.3 mph - N/A Fog Fog
1:38 AM 33.8°F 33.8°F 100% 30.16 in 0.5 miles Calm Calm - N/A Fog Fog
1:43 AM 33.8°F 33.8°F 100% 30.17 in 0.8 miles Calm Calm - N/A   Mostly Cloudy
1:48 AM 33.8°F 33.8°F 100% 30.17 in 1.0 miles Calm Calm - N/A   Mostly Cloudy
1:53 AM 33.8°F 33.8°F 100% 30.17 in 2.0 miles Calm Calm - N/A   Mostly Cloudy
1:58 AM 34.5°F 34.2°F 99% 30.19 in 8.0 miles Calm Calm - N/A   Overcast
2:58 AM 35.6°F 35.4°F 99% 30.20 in 4.0 miles SE 1.2 mph - N/A   Overcast
3:43 AM 35.6°F 35.6°F 100% 30.18 in 10.0 miles South 2.3 mph - N/A   Overcast
3:46 AM 35.6°F 35.6°F 100% 30.18 in 10.0 miles South 3.5 mph - N/A   Overcast
3:51 AM 35.6°F 35.6°F 100% 30.18 in 10.0 miles South 2.3 mph - N/A   Overcast
3:56 AM 35.6°F 35.6°F 100% 30.18 in 10.0 miles SE 3.5 mph - N/A   Overcast
3:58 AM 35.6°F 35.6°F 100% 30.20 in 10.0 miles SE 2.3 mph - 0.00 in   Mostly Cloudy
4:58 AM 35.8°F 35.6°F 99% 30.19 in 10.0 miles SE 2.3 mph - N/A   Overcast
5:53 AM 37.4°F 37.4°F 100% 30.17 in 9.0 miles ESE 2.3 mph - N/A   Overcast
5:58 AM 37.0°F 36.7°F 99% 30.19 in 9.0 miles ESE 3.5 mph - N/A   Overcast
6:58 AM 36.9°F 36.5°F 99% 30.19 in 9.0 miles Calm Calm - N/A   Overcast
7:28 AM 35.6°F 35.6°F 100% 30.17 in 1.2 miles Calm Calm - N/A   Mostly Cloudy
7:33 AM 35.6°F 35.6°F 100% 30.17 in 0.8 miles Calm Calm - N/A   Mostly Cloudy
7:38 AM 35.6°F 35.6°F 100% 30.17 in 1.5 miles East 1.2 mph - N/A   Mostly Cloudy
7:43 AM 35.6°F 35.6°F 100% 30.18 in 2.0 miles South 1.2 mph - N/A   Mostly Cloudy
7:48 AM 35.6°F 35.6°F 100% 30.18 in 1.0 miles Calm Calm - N/A   Mostly Cloudy
7:53 AM 35.6°F 35.6°F 100% 30.18 in 1.2 miles Calm Calm - N/A   Overcast
7:58 AM 35.6°F 35.6°F 100% 30.20 in 4.0 miles Calm Calm - N/A   Overcast
8:13 AM 35.6°F 35.6°F 100% 30.18 in 2.0 miles SE 2.3 mph - N/A   Overcast
8:18 AM 35.6°F 35.6°F 100% 30.17 in 0.8 miles SE 2.3 mph - N/A   Overcast
8:23 AM 35.6°F 35.6°F 100% 30.17 in 0.5 miles ESE 2.3 mph - N/A Fog Fog
8:28 AM 35.6°F 35.6°F 100% 30.17 in 0.8 miles ESE 2.3 mph - N/A   Mostly Cloudy
8:33 AM 35.6°F 35.6°F 100% 30.17 in 1.2 miles ESE 2.3 mph - N/A   Mostly Cloudy
8:43 AM 35.6°F 35.6°F 100% 30.18 in 0.8 miles SE 2.3 mph - N/A   Mostly Cloudy
8:48 AM 35.6°F 35.6°F 100% 30.18 in 0.8 miles Calm Calm - N/A   Mostly Cloudy
8:53 AM 35.6°F 35.6°F 100% 30.18 in 1.5 miles Calm Calm - N/A   Mostly Cloudy
8:58 AM 35.1°F 34.9°F 99% 30.21 in 8.0 miles West 1.2 mph - N/A   Mostly Cloudy
9:58 AM 37.9°F 37.8°F 99% 30.22 in 10.0 miles SE 1.2 mph - N/A   Overcast
10:58 AM 39.2°F 37.9°F 95% 30.20 in 10.0 miles SSE 4.6 mph - N/A   Mostly Cloudy
11:58 AM 41.0°F 36.9°F 85% 30.18 in 10.0 miles Calm Calm - N/A   Overcast
12:18 PM 41.0°F 37.4°F 87% 30.16 in 10.0 miles West 2.3 mph - N/A   Overcast
12:28 PM 41.0°F 37.4°F 87% 30.16 in 10.0 miles WNW 2.3 mph - N/A Rain Light Rain
12:58 PM 41.0°F 37.2°F 86% 30.18 in 10.0 miles Variable 2.3 mph - 0.00 in Rain Light Rain
1:03 PM 41.0°F 37.4°F 87% 30.16 in 10.0 miles WNW 1.2 mph - N/A Rain Light Rain
1:58 PM 41.0°F 35.6°F 81% 30.16 in 10.0 miles SSE 2.3 mph - 0.01 in Rain Light Rain
2:13 PM 39.2°F 35.6°F 87% 30.14 in 8.0 miles Calm Calm - N/A Rain Light Rain
2:57 PM 39.2°F 37.4°F 93% 30.15 in 10.0 miles East 2.3 mph - N/A   Overcast
2:58 PM 39.2°F 37.4°F 93% 30.17 in 10.0 miles East 2.3 mph - 0.03 in   Overcast
3:01 PM 39.2°F 37.4°F 93% 30.15 in 10.0 miles East 2.3 mph - N/A Rain Light Rain
3:58 PM 39.0°F 38.3°F 97% 30.17 in 10.0 miles ESE 3.5 mph - 0.04 in Rain Light Rain
4:03 PM 39.2°F 39.2°F 100% 30.15 in 10.0 miles East 2.3 mph - N/A   Overcast
4:11 PM 39.2°F 39.2°F 100% 30.15 in 10.0 miles East 4.6 mph - N/A Rain Light Rain
4:46 PM 39.2°F 39.2°F 100% 30.16 in 10.0 miles SE 3.5 mph - N/A   Overcast
4:58 PM 38.7°F 38.3°F 99% 30.18 in 10.0 miles ESE 3.5 mph - 0.00 in   Overcast
5:27 PM 39.2°F 37.4°F 93% 30.16 in 9.0 miles East 2.3 mph - N/A Rain Light Rain
5:36 PM 39.2°F 37.4°F 93% 30.16 in 10.0 miles Calm Calm - N/A   Overcast
5:40 PM 39.2°F 37.4°F 93% 30.16 in 10.0 miles Calm Calm - N/A   Overcast
5:58 PM 38.3°F 38.1°F 99% 30.18 in 10.0 miles SE 1.2 mph - 0.01 in   Overcast
6:08 PM 39.2°F 37.4°F 93% 30.16 in 10.0 miles North - - N/A   Overcast
6:23 PM 39.2°F 37.4°F 93% 30.17 in 10.0 miles Calm Calm - N/A   Overcast
6:33 PM 39.2°F 37.4°F 93% 30.16 in 10.0 miles Calm Calm - N/A   Overcast
6:48 PM 39.2°F 37.4°F 93% 30.17 in 10.0 miles Calm Calm - N/A   Overcast
6:58 PM 38.3°F 38.1°F 99% 30.19 in 10.0 miles Calm Calm - N/A   Overcast
7:03 PM 39.2°F 37.4°F 93% 30.17 in 10.0 miles Calm Calm - N/A   Overcast
7:08 PM 39.2°F 37.4°F 93% 30.17 in 10.0 miles Calm Calm - N/A   Overcast
7:58 PM 38.5°F 38.3°F 99% 30.20 in 10.0 miles Calm Calm - N/A   Overcast
8:51 PM 39.2°F 39.2°F 100% 30.19 in 10.0 miles Calm Calm - N/A Rain Light Rain
8:58 PM 38.7°F 38.5°F 99% 30.21 in 10.0 miles Calm Calm - 0.00 in Rain Light Rain
9:18 PM 39.2°F 37.4°F 93% 30.19 in 9.0 miles SSW 1.2 mph - N/A Rain Light Rain
9:40 PM 39.2°F 37.4°F 93% 30.20 in 10.0 miles West 2.3 mph - N/A   Overcast
9:50 PM 39.2°F 39.2°F 100% 30.20 in 10.0 miles West 2.3 mph - N/A   Overcast
9:52 PM 39.2°F 39.2°F 100% 30.20 in 10.0 miles West 2.3 mph - N/A   Overcast
9:58 PM 38.5°F 38.3°F 99% 30.22 in 10.0 miles Calm Calm - 0.00 in   Overcast
10:23 PM 37.4°F 37.4°F 100% 30.21 in 8.0 miles Calm Calm - N/A   Overcast
10:58 PM 37.9°F 37.8°F 99% 30.24 in 10.0 miles Calm Calm - N/A   Overcast
11:06 PM 37.4°F 37.4°F 100% 30.22 in 9.0 miles ESE 2.3 mph - N/A   Overcast
11:16 PM 37.4°F 37.4°F 100% 30.22 in 7.0 miles ESE 1.2 mph - N/A   Overcast
11:21 PM 37.4°F 37.4°F 100% 30.23 in 8.0 miles SSE 1.2 mph - N/A   Overcast
11:36 PM 37.4°F 37.4°F 100% 30.23 in 5.0 miles South 2.3 mph - N/A   Overcast
11:41 PM 37.4°F 37.4°F 100% 30.23 in 5.0 miles SSE 2.3 mph - N/A   Overcast
11:58 PM 38.1°F 37.8°F 99% 30.25 in 8.0 miles ESE 2.3 mph - N/A   Overcast
Moon Phase
Dec. 29 Jan. 04 Jan. 11 Jan. 18 Jan. 26
Sunrise:07:56 AM (PST) Moon Rise:06:14 PM (PST)12/29
Sunset:04:28 PM (PST) Moon Set:08:26 AM (PST)12/29

Copyright © 2014 The Weather Underground, Inc.